Temperature
23 20 19 20 21 21 22 23 23 24 25 24 23 23 23 24 24 23 23 23 23 23 23 23 22 22 21 21 20 20 20 19 19 19 18 18 18 17 17 17 17 17 17 17
21 20 21 22 23 23 23 23 23 24 25 25 23 23 23 23 23 23 23 22 22 23 22 22 22 22 21 21 20 20 20 19 19 19 18 18 18 17 17 17 17 17 16 16
20 21 23 24 23 23 23 23 23 23 24 24 23 22 22 22 23 23 23 22 22 22 22 22 21 21 21 21 20 20 20 19 19 19 18 18 17 17 17 17 16 16 16 16
21 22 24 24 24 24 23 24 24 24 22 21 22 20 21 21 21 21 21 21 21 21 21 21 21 21 21 21 20 20 20 19 19 18 18 18 17 17 17 17 16 16 16 16
21 23 23 23 24 25 23 25 24 24 22 21 21 20 19 20 20 20 20 21 21 21 21 21 21 21 20 20 20 20 19 19 19 18 18 18 17 17 16 16 16 16 16 16
22 23 23 24 25 25 25 24 23 20 19 20 21 20 19 19 20 20 20 20 20 20 20 20 20 20 20 20 19 19 19 18 18 18 18 17 17 17 16 16 16 16 16 15
22 23 24 25 24 24 23 20 19 19 18 19 20 20 19 20 20 20 19 19 19 19 20 19 19 19 19 19 19 19 18 18 18 18 17 17 17 16 16 16 16 16 16 15
20 21 23 24 23 22 22 20 19 19 19 19 20 20 19 20 20 20 20 19 19 19 19 19 19 19 18 18 18 18 18 18 17 17 17 16 16 16 16 16 16 15 15 15
19 20 23 24 24 23 23 20 19 18 19 19 18 19 19 20 19 19 19 18 18 18 18 18 18 18 18 18 17 18 18 17 17 16 16 16 16 16 16 15 15 15 15 15
20 20 22 23 24 23 22 21 18 18 19 18 19 18 18 18 18 18 17 17 17 18 18 18 18 17 17 17 17 17 17 17 16 16 16 16 15 15 15 15 15 15 15 14
19 19 20 21 22 22 22 21 19 17 17 18 18 18 19 18 18 17 17 17 17 17 17 17 17 17 17 17 17 17 17 16 16 16 15 15 15 15 15 15 15 15 14 14
19 17 18 20 21 22 21 20 18 18 18 17 17 17 19 18 18 18 17 17 17 17 16 16 16 16 16 16 16 16 16 16 16 15 15 15 15 15 14 14 14 14 14 14
19 16 17 18 19 20 21 20 19 17 16 16 17 17 18 17 17 17 17 17 16 16 16 16 16 16 16 16 16 15 15 15 15 15 15 15 15 15 14 14 14 14 14 14
19 16 16 17 18 19 20 20 19 17 16 17 17 17 17 16 16 16 16 16 16 16 16 16 16 15 15 15 15 15 15 15 15 15 15 14 14 14 14 14 14 14 14 13
17 16 17 18 19 19 19 19 19 18 17 17 17 17 16 16 16 16 16 16 15 15 15 15 15 15 15 15 15 15 15 14 14 14 14 14 14 14 14 14 14 14 13 13
15 16 17 17 19 19 18 19 19 19 18 18 17 17 16 17 17 16 15 15 15 15 15 15 15 15 15 15 15 14 14 14 14 14 14 14 14 14 14 13 13 13 13 13
14 15 15 15 17 18 17 17 18 17 17 17 16 16 16 16 16 15 15 15 15 15 15 15 15 15 15 15 14 14 14 14 14 13 13 13 13 13 13 13 13 13 13 13
14 14 13 14 16 16 16 17 18 17 17 16 16 16 16 16 16 16 16 16 15 15 15 15 15 15 15 14 14 14 14 13 13 13 13 13 13 13 13 13 13 13 13 13
14 14 13 13 14 15 16 17 16 16 15 16 15 15 15 16 16 15 16 16 16 16 16 15 15 15 14 14 14 14 13 13 13 13 13 13 13 13 13 13 13 13 13 13
14 13 13 13 14 14 15 16 17 16 14 15 15 15 15 15 14 14 16 16 16 16 15 15 15 14 14 14 13 13 13 13 13 13 13 13 13 13 13 13 13 13 12 13
13 13 13 13 13 13 14 16 16 15 14 15 15 15 15 14 14 15 16 15 15 15 15 15 15 14 14 14 13 13 13 13 13 13 12 12 12 12 13 12 12 12 12 12
12 12 12 12 12 13 14 15 14 13 14 15 15 15 15 15 15 15 15 15 15 15 14 14 14 14 14 13 13 13 13 13 12 12 12 12 12 12 12 12 12 12 12 12
12 12 11 11 12 13 14 14 14 14 14 14 15 15 15 15 15 15 15 14 14 14 14 14 14 13 13 13 13 13 12 12 12 12 12 12 12 12 12 12 12 12 12 12
12 12 11 11 12 13 14 14 14 14 14 14 15 15 15 15 14 14 14 14 13 13 13 13 13 13 13 13 12 12 12 12 12 12 12 12 12 12 12 12 12 12 12 12
12 11 11 11 12 12 14 14 14 14 14 14 14 14 15 15 14 14 13 13 13 13 13 13 13 12 12 12 12 12 12 12 12 12 12 12 12 12 12 12 12 12 12 12
11 11 11 10 12 11 13 14 14 14 14 14 14 14 14 14 14 13 13 13 12 12 12 12 12 12 12 12 12 12 12 12 12 12 12 11 11 11 11 11 12 12 11 11
Wind_Speed
3 3 6 9 9 9 7 6 8 8 7 2 5 6 8 7 6 8 8 8 9 10 9 9 10 10 9 8 8 9 8 6 5 4 4 3 2 2 2 2 3 3 3 4
2 6 12 9 8 7 8 7 8 8 6 2 3 5 5 4 6 8 9 8 8 6 5 7 9 9 10 10 9 9 8 7 6 5 4 3 3 2 2 2 2 2 3 3
9 10 8 8 9 9 9 8 8 6 4 2 1 4 3 2 0 2 5 6 7 9 9 7 7 8 9 9 10 9 8 7 6 6 4 3 3 2 2 1 1 1 2 2
7 10 8 8 10 8 8 9 6 4 1 4 2 2 6 4 0 2 3 4 6 7 7 7 7 8 9 9 9 9 8 7 6 6 6 6 4 3 2 2 1 1 1 1
7 5 5 8 10 7 8 6 3 3 2 1 1 3 6 2 2 3 4 4 5 6 7 6 6 8 7 7 8 8 7 6 6 6 6 6 4 2 2 2 2 1 0 0
8 7 6 8 8 7 5 2 5 4 4 1 5 4 5 4 6 4 2 3 5 5 6 6 6 7 7 6 6 6 6 5 5 6 6 6 6 4 3 2 2 1 1 1
7 8 6 4 3 4 3 5 3 5 3 5 4 3 5 5 3 5 7 5 5 6 7 8 7 7 6 6 6 6 7 4 4 5 5 5 6 6 5 4 3 2 1 1
3 7 5 3 6 5 4 9 8 6 5 5 3 3 4 3 1 4 7 7 7 7 7 8 7 6 6 6 6 6 6 4 4 4 4 3 4 3 3 3 3 2 2 3
5 6 5 4 3 7 5 5 9 7 3 1 3 2 3 4 4 5 6 7 7 7 7 7 6 6 6 5 5 6 6 5 4 3 3 2 2 3 3 3 2 1 1 2
6 4 6 4 2 1 6 7 6 5 4 3 3 3 3 3 4 5 5 5 5 6 6 6 6 6 5 5 4 5 6 5 4 3 2 2 2 3 3 3 3 2 1 1
4 4 4 3 1 2 1 3 5 4 5 5 3 5 5 9 9 9 7 7 6 6 6 6 6 5 5 5 4 4 5 5 4 3 2 2 1 2 3 2 2 2 2 1
2 4 2 5 4 2 4 4 6 5 3 4 4 6 4 6 7 8 8 7 6 5 6 6 6 6 5 5 4 5 4 4 3 2 2 1 2 2 2 2 2 2 2 1
3 5 1 5 6 4 2 1 3 5 4 4 4 5 2 4 4 5 7 7 7 6 6 5 5 5 5 5 5 4 4 3 2 2 2 2 1 2 1 2 2 2 2 2
4 4 5 7 5 2 1 3 1 4 3 3 6 5 2 3 4 4 5 6 6 6 6 5 4 3 4 4 4 4 3 3 2 2 1 1 1 1 2 2 1 2 2 2
4 3 3 4 3 2 1 3 2 2 5 6 6 7 7 7 7 7 6 6 6 6 5 5 4 3 4 4 4 3 3 2 2 2 1 1 1 1 0 0 1 1 1 2
3 3 1 1 1 1 2 5 3 2 2 4 4 4 4 5 4 5 6 7 7 6 6 5 5 4 4 5 5 4 3 2 2 2 1 1 0 1 1 1 1 1 1 2
2 3 3 2 2 2 3 4 2 1 1 3 4 5 3 4 6 8 8 8 7 7 6 5 5 5 5 5 6 5 3 2 2 1 1 1 0 1 2 2 1 1 2 2
4 3 3 1 2 2 4 1 2 2 1 1 1 2 5 6 6 6 7 8 7 6 5 4 4 4 4 4 5 4 3 3 2 1 1 1 1 1 2 2 2 2 2 2
4 5 3 3 2 3 2 2 1 0 3 2 1 1 1 2 3 1 3 5 6 6 5 5 4 5 5 5 5 5 3 3 2 2 2 2 1 2 2 2 3 3 2 3
3 4 4 3 3 4 4 5 3 2 2 3 1 2 2 4 2 4 3 3 3 4 4 3 3 4 5 4 4 5 4 3 3 4 4 3 2 2 3 4 4 3 2 3
4 3 2 2 3 3 4 5 3 2 4 4 1 3 4 4 5 4 3 2 3 4 4 4 4 4 5 5 5 4 3 4 5 4 3 2 2 3 3 3 3 2 2 2
2 2 1 2 2 4 4 2 1 4 3 3 2 2 3 2 2 3 4 4 4 4 4 4 4 4 3 5 5 5 5 5 4 3 3 2 3 3 3 2 2 2 1 1
1 3 3 3 4 4 2 2 3 2 1 2 2 2 2 2 2 2 3 3 3 4 4 3 4 3 2 3 6 6 5 4 3 3 3 3 3 3 3 3 3 2 2 2
2 1 2 1 2 2 1 1 2 1 2 3 2 2 3 3 3 3 3 4 3 3 4 4 4 4 2 2 3 4 4 3 4 3 3 2 2 3 3 2 3 2 3 3
2 1 1 1 3 3 2 2 3 3 3 3 2 2 3 5 4 4 3 4 4 3 3 4 4 4 3 2 2 2 2 3 3 3 3 3 2 2 2 2 3 3 4 5
1 2 3 4 5 3 5 4 2 2 4 2 1 1 1 3 4 3 3 3 3 4 3 3 3 3 3 2 2 2 2 3 3 3 3 3 3 2 2 2 3 3 3 5
Wind_Direction
207 134 223 229 213 211 228 247 265 263 254 211 216 230 235 222 192 186 185 178 181 188 190 176 172 163 155 151 151 152 149 149 144 139 144 142 162 168 158 160 144 140 129 131
356 246 232 230 237 235 239 248 266 280 275 213 218 248 246 210 195 186 185 188 181 174 168 172 170 165 165 164 156 152 154 155 158 163 166 161 155 159 161 156 128 134 131 137
211 240 236 233 248 248 249 225 235 249 297 354 68 320 305 285 140 140 160 168 166 171 171 167 164 169 165 165 162 160 159 161 158 145 126 114 83 63 63 110 161 188 143 143
234 245 244 244 249 231 247 239 226 236 265 277 149 239 281 263 277 146 167 161 155 157 156 159 151 154 168 169 159 154 153 151 150 141 138 143 147 154 184 179 171 160 101 107
242 235 232 244 245 224 225 234 225 219 202 283 322 161 274 282 223 218 189 169 149 146 150 151 149 148 151 153 152 151 150 148 146 143 143 145 146 158 146 127 117 142 195 143
248 252 222 229 248 234 217 20 7 41 76 285 245 180 266 236 214 200 166 139 133 129 131 121 115 120 125 131 131 133 136 142 152 146 141 149 153 150 142 149 168 196 227 260
285 280 255 226 261 300 122 100 22 346 359 253 250 179 245 254 224 174 154 143 129 126 121 114 113 117 125 135 137 139 134 141 151 148 155 161 159 158 166 175 183 186 202 241
234 276 263 228 195 197 192 148 166 201 224 264 314 213 267 300 174 134 131 130 122 117 117 118 120 122 127 130 132 135 136 142 141 149 162 159 154 156 165 166 162 178 207 224
198 252 275 255 206 169 176 187 178 155 189 217 262 258 315 31 80 97 112 119 128 128 119 114 111 117 122 128 132 139 134 125 124 133 137 134 148 148 152 148 145 168 219 239
175 236 277 276 31 353 171 159 101 124 175 229 252 229 218 180 142 124 129 133 131 129 124 114 107 110 118 127 125 122 127 128 119 116 127 141 156 161 158 154 162 177 222 238
160 178 299 360 145 221 58 117 120 137 161 167 213 255 217 189 175 164 159 148 148 142 138 130 125 124 119 107 102 105 111 107 103 103 101 107 130 145 153 166 176 183 200 212
148 138 242 259 252 184 164 174 148 158 214 169 175 250 264 184 175 159 150 144 147 138 128 128 127 120 120 118 114 108 109 108 112 111 111 131 145 132 143 176 200 196 198 213
127 111 60 330 335 5 66 102 146 143 141 172 184 242 355 116 127 142 146 141 133 128 122 117 119 124 137 136 129 128 128 129 128 131 135 130 135 147 187 204 207 206 205 228
120 120 163 199 225 234 303 331 26 123 154 205 207 202 222 167 157 156 150 139 137 137 136 133 131 136 146 139 137 138 138 143 143 130 126 157 202 203 216 216 211 203 203 216
93 141 190 226 233 191 268 296 287 214 199 202 208 198 211 195 181 168 155 145 141 147 144 148 151 152 152 141 138 136 142 146 133 121 131 221 245 245 237 244 234 208 206 230
77 139 128 321 19 46 316 314 288 279 243 184 170 224 230 183 163 154 154 155 159 170 168 166 164 159 163 158 153 143 139 137 128 144 195 226 326 359 325 277 266 246 245 259
107 121 120 254 296 17 314 294 243 202 253 190 209 230 173 152 169 173 174 174 178 182 175 171 173 175 175 172 163 162 163 145 135 172 216 231 242 332 299 281 271 256 258 258
147 132 137 156 68 215 242 284 144 138 335 330 166 185 174 188 195 180 175 176 183 185 178 178 176 176 178 170 161 159 151 148 161 206 232 246 248 274 285 278 272 262 261 253
160 151 132 134 168 252 276 302 329 149 307 331 136 130 123 118 95 162 191 185 188 186 181 181 181 172 165 166 167 155 161 168 175 215 236 240 239 257 267 262 265 268 264 268
61 106 128 138 159 219 254 291 312 102 285 320 93 137 135 91 137 238 230 190 181 162 154 161 158 152 159 178 169 160 176 182 202 219 224 228 234 237 250 255 252 258 259 260
36 50 107 164 204 250 279 302 2 142 230 274 230 163 150 174 211 216 175 156 150 140 142 146 149 159 178 179 165 171 186 212 219 216 216 227 240 242 247 257 264 267 281 290
125 116 152 154 186 247 303 21 136 221 249 263 276 205 177 193 171 153 148 144 139 134 132 138 150 165 181 176 169 185 204 215 212 200 208 237 251 254 264 261 269 263 250 279
141 181 177 181 207 243 262 180 217 209 244 279 276 266 179 148 158 156 154 145 140 145 145 143 154 162 177 180 176 190 214 206 190 189 209 240 262 266 263 247 250 259 246 240
337 35 98 88 267 278 263 290 302 287 281 278 252 227 180 162 157 149 155 149 135 139 150 152 151 154 181 197 178 189 204 196 188 198 221 240 256 274 281 253 233 236 241 244
247 28 56 239 272 322 318 308 303 317 325 323 284 244 189 156 157 160 167 171 165 171 171 162 158 166 181 179 179 195 197 184 187 202 218 234 246 252 268 261 239 235 241 225
257 185 184 226 234 222 267 283 312 347 337 339 345 358 96 145 157 160 169 178 169 170 168 163 162 173 185 182 193 224 213 180 178 203 219 223 234 245 251 262 291 286 255 250
Height
1488 1496 1501 1498 1496 1497 1498 1501 1502 1494 1484 1487 1491 1491 1488 1485 1487 1488 1489 1492 1493 1495 1497 1499 1501 1503 1505 1507 1509 1510 1511 1513 1515 1516 1518 1518 1519 1520 1520 1521 1521 1521 1521 1522
1493 1497 1489 1487 1488 1491 1495 1500 1499 1491 1482 1485 1491 1491 1485 1484 1485 1485 1486 1488 1490 1492 1495 1497 1499 1501 1503 1505 1506 1509 1510 1512 1513 1515 1516 1517 1518 1519 1519 1519 1520 1520 1520 1520
1494 1487 1481 1485 1488 1491 1491 1495 1494 1492 1485 1484 1489 1496 1491 1485 1484 1485 1486 1487 1488 1490 1492 1495 1498 1499 1501 1503 1504 1507 1508 1510 1512 1513 1515 1517 1517 1518 1518 1518 1519 1519 1519 1519
1486 1480 1480 1483 1484 1485 1493 1481 1482 1486 1494 1502 1495 1514 1499 1489 1487 1485 1486 1486 1487 1488 1491 1493 1494 1497 1499 1501 1503 1505 1506 1509 1511 1512 1513 1514 1515 1515 1516 1517 1517 1518 1518 1518
1483 1476 1478 1482 1478 1477 1481 1474 1479 1483 1493 1502 1499 1509 1505 1492 1492 1488 1485 1485 1485 1487 1490 1491 1493 1495 1498 1500 1502 1504 1505 1507 1509 1511 1512 1513 1514 1515 1515 1516 1516 1517 1517 1516
1475 1471 1472 1472 1469 1469 1471 1477 1482 1490 1501 1514 1502 1507 1508 1496 1489 1486 1485 1485 1485 1487 1489 1491 1493 1495 1497 1500 1502 1503 1505 1507 1509 1510 1510 1511 1512 1513 1514 1514 1514 1514 1514 1514
1479 1472 1467 1466 1471 1470 1474 1493 1513 1516 1523 1518 1499 1502 1503 1487 1482 1482 1484 1485 1485 1487 1488 1490 1492 1494 1496 1498 1501 1502 1504 1506 1508 1509 1509 1510 1510 1511 1512 1512 1512 1512 1512 1512
1489 1486 1468 1464 1468 1475 1477 1489 1513 1524 1525 1516 1500 1504 1497 1482 1480 1481 1483 1485 1486 1488 1489 1490 1492 1494 1496 1497 1499 1501 1502 1504 1506 1508 1508 1509 1509 1510 1510 1510 1510 1510 1510 1510
1487 1484 1465 1461 1460 1465 1475 1484 1486 1503 1507 1515 1510 1501 1491 1483 1482 1484 1486 1486 1487 1488 1489 1491 1492 1494 1495 1497 1498 1500 1502 1503 1505 1506 1507 1507 1508 1508 1509 1509 1509 1509 1509 1508
1474 1481 1469 1461 1460 1461 1466 1473 1490 1502 1514 1520 1510 1505 1501 1490 1488 1487 1487 1487 1488 1489 1490 1491 1492 1493 1495 1497 1498 1500 1501 1502 1504 1505 1506 1506 1506 1507 1507 1507 1507 1507 1507 1506
1470 1481 1475 1468 1469 1472 1471 1475 1484 1497 1501 1513 1518 1509 1484 1484 1483 1484 1485 1487 1488 1488 1489 1490 1492 1494 1495 1496 1497 1498 1500 1501 1502 1503 1504 1505 1505 1505 1506 1506 1505 1505 1505 1504
1468 1479 1485 1474 1464 1462 1467 1473 1483 1498 1501 1502 1509 1504 1477 1477 1478 1480 1482 1485 1487 1489 1490 1490 1492 1493 1495 1496 1496 1498 1499 1500 1501 1502 1503 1503 1503 1504 1504 1504 1503 1503 1503 1502
1467 1481 1492 1487 1479 1470 1469 1471 1476 1485 1495 1501 1506 1499 1479 1478 1480 1481 1482 1484 1487 1489 1490 1490 1491 1493 1494 1495 1496 1498 1499 1500 1501 1502 1502 1502 1502 1502 1502 1502 1502 1502 1501 1500
1463 1478 1488 1493 1487 1477 1475 1473 1473 1482 1496 1497 1492 1490 1484 1481 1481 1482 1482 1484 1486 1487 1488 1489 1490 1492 1493 1495 1496 1497 1498 1499 1499 1500 1500 1500 1500 1500 1500 1500 1500 1500 1499 1498
1465 1478 1476 1475 1471 1471 1474 1473 1473 1478 1483 1487 1485 1484 1481 1479 1478 1479 1482 1483 1485 1486 1487 1488 1488 1490 1491 1493 1495 1495 1496 1497 1498 1498 1498 1498 1498 1499 1499 1499 1498 1498 1497 1496
1468 1475 1476 1476 1472 1472 1474 1472 1471 1473 1475 1477 1478 1480 1475 1476 1478 1479 1481 1482 1484 1485 1485 1486 1487 1488 1490 1491 1492 1494 1495 1495 1496 1497 1497 1497 1497 1497 1497 1497 1496 1495 1495 1494
1471 1476 1482 1485 1476 1474 1482 1476 1474 1475 1473 1474 1478 1477 1474 1475 1476 1476 1478 1480 1481 1482 1483 1484 1485 1487 1488 1490 1491 1492 1494 1494 1495 1495 1495 1495 1495 1495 1494 1494 1494 1493 1492 1492
1470 1477 1484 1485 1483 1492 1483 1471 1469 1471 1472 1471 1471 1471 1471 1471 1472 1474 1475 1477 1478 1479 1480 1482 1483 1485 1486 1488 1490 1491 1492 1493 1493 1493 1493 1494 1493 1492 1492 1492 1491 1491 1490 1489
1463 1472 1482 1489 1490 1486 1477 1472 1471 1473 1475 1471 1470 1470 1470 1470 1472 1475 1475 1475 1475 1476 1478 1480 1481 1483 1484 1486 1488 1489 1490 1491 1491 1491 1492 1492 1491 1491 1490 1489 1489 1488 1487 1486
1464 1468 1479 1485 1488 1490 1481 1469 1467 1470 1477 1470 1469 1469 1469 1470 1475 1474 1473 1473 1474 1475 1476 1478 1480 1481 1482 1484 1486 1487 1488 1488 1489 1489 1490 1490 1489 1488 1487 1486 1486 1485 1485 1484
1474 1477 1481 1485 1487 1483 1474 1468 1467 1479 1479 1470 1468 1468 1468 1468 1470 1469 1470 1471 1472 1473 1474 1476 1478 1479 1480 1482 1483 1483 1484 1486 1487 1487 1488 1488 1487 1486 1485 1484 1484 1483 1482 1481
1479 1482 1484 1485 1488 1487 1471 1469 1473 1474 1470 1468 1467 1466 1466 1465 1466 1466 1466 1468 1469 1470 1472 1474 1475 1476 1478 1479 1480 1480 1482 1483 1484 1485 1485 1485 1485 1484 1483 1482 1481 1480 1480 1479
1476 1478 1480 1481 1482 1474 1471 1470 1470 1469 1468 1466 1466 1465 1465 1465 1465 1465 1465 1466 1467 1469 1470 1472 1473 1474 1476 1477 1478 1479 1480 1481 1482 1483 1483 1482 1482 1482 1481 1480 1479 1478 1478 1477
1474 1472 1475 1477 1474 1472 1470 1469 1468 1467 1466 1465 1464 1464 1464 1464 1464 1464 1465 1465 1466 1467 1469 1470 1471 1472 1473 1474 1476 1477 1478 1479 1480 1480 1480 1480 1479 1479 1478 1477 1477 1476 1475 1474
1474 1473 1475 1475 1473 1471 1469 1468 1466 1465 1464 1462 1462 1462 1462 1462 1462 1462 1463 1463 1464 1465 1467 1468 1468 1469 1470 1472 1473 1475 1475 1476 1477 1477 1477 1477 1477 1476 1475 1475 1474 1473 1473 1473
1472 1473 1475 1475 1471 1471 1468 1467 1466 1463 1461 1460 1460 1460 1461 1461 1460 1461 1461 1462 1463 1464 1465 1465 1466 1467 1468 1469 1471 1472 1473 1473 1474 1474 1474 1474 1474 1474 1473 1472 1472 1471 1471 1471